Weather in Nowa Sarzyna

Poland     50°19′51″N   22°20′15″E
temp.,
°C
wind,
m/s
gust,
m/s
humid.,
%
clouds,
%
prec.,
mm/h
press.,
hPa
HPBL,
m
12 may, wed
wed1223:00+15ese716683 0.0 1012436
02:00+13ese715675 0.0 1011344
05:00+12ese614735 0.0 1010308
08:00+15ese713715 0.0 1010416
11:00+20se911590 0.0 1009905
14:00+22ese810545 0.0 10081711
17:00+19ese1011728 0.1 10071101
20:00+13ese815790 0.1 1007706
13 may, thu
thu1323:00+11ese816660 0.0 1007612
02:00+9ese715740 0.0 1005515
05:00+8ese612810 0.0 1003449
08:00+11ese677885 0.0 1003460
11:00+12ese458085 0.1 1002393
14:00+16se258096 0.4 1000599
17:00+16ssw7873100 0.8 9991105
20:00+13ssw4885100 0.8 1000571
14 may, fri
fri1423:00+12sw61095100 0.9 1000651
02:00+11sw61193100 1.8 1001542
05:00+11sw61095100 0.4 1002717
08:00+11wsw61092100 1.0 1003610
11:00+10wsw5995100 1.2 1005651
14:00+11w71089100 2.1 1007735
17:00+11wsw5991100 0.3 1008604
20:00+10wsw379299 0.3 1009279
15 may, sat
sat1523:00+9sw3492100 0.0 101089
02:00+8sw4993100 0.0 1010163
05:00+7sw3593100 0.0 101087
08:00+11wsw2483100 0.0 1010196
11:00+16wsw1269100 0.0 1010814
14:00+18sw236029 1.0 10091374
17:00+18se115911 1.0 10081221
20:00+14e228199 2.1 100815
16 may, sun
sun1623:00+11e359122 0.9 100973
02:00+10e34935 1.2 100958
05:00+9e3694100 0.5 1008108
08:00+13ese5982100 0.5 1008417
11:00+18ese6868100 0.0 10081053
14:00+16se71080100 0.6 1007680
17:00+14e4789100 0.6 1006508
20:00+13ene3794100 0.9 1006341